Regional Weather Roundup
Issued by NWS Nashville, TN

Home | Current Version | Previous Version | Text Only | Print | Product List | Glossary On
Versions: 1 2 3 4 5 6 7 8 9 10 11 12 13 14 15 16 17 18 19 20 21 22 23 24 25 26 27 28 29 30 31 32 33 34 35 36 37 38 39 40 41 42 43 44 45 46 47 48 49 50
000
ASUS44 KOHX 171015
RWROHX
MIDDLE TENNESSEE HOURLY WEATHER ROUNDUP
NATIONAL WEATHER SERVICE NASHVILLE TN
500 AM CDT THU APR 17 2014

NOTE: "FAIR" INDICATES FEW OR NO CLOUDS BELOW 12,000 FEET WITH
NO SIGNIFICANT WEATHER AND/OR OBSTRUCTIONS TO VISIBILITY.

* THESE REPORTS ARE NOT UNDER NWS QUALITY CONTROL AND MAY NOT
  REPORT WEATHER SUCH AS PRECIPITATION AND FOG.


TNZ005>011-023>034-057-059-062>066-078-080-171100
...NORTHERN MIDDLE TENNESSEE...

CITY           SKY/WX    TMP DP  RH WIND       PRES   REMARKS
BAXTER*          N/A     45  28  53 CALM        N/A
BRENTWOOD*       N/A     46  34  61 CALM        N/A
CASTALIAN SPRG   N/A     37  36  93 CALM        N/A
CLARKSVILLE    CLEAR     42  32  67 SE8       30.26R
COLUMBIA       CLEAR     48  36  61 SE8       30.26R
CROSSVILLE     PTCLDY    43  26  51 S5        30.32R
GALLATIN         N/A     41  34  76 CALM      30.30R
DICKSON        CLEAR     48  30  49 S9        30.25R
FAIRFIELD GLAD   N/A     43  28  56 SE1         N/A
GOODLETTSVILLE   N/A     41  32  70 CALM        N/A
JOELTON*         N/A     48  34  57 W2          N/A
KINGSTON SPGS*   N/A     46  36  66 SE1         N/A
LAFAYETTE*       N/A     46  28  49 S3          N/A
LIVINGSTON     PTCLDY    44  26  49 S6        30.30R
MONTEREY         N/A     34  30  86 CALM        N/A
NASHVILLE      PTCLDY    47  32  56 S7        30.29R
OLD HICKORY*     N/A     41  37  87 CALM        N/A
PEGRAM*          N/A    N/A N/A N/A SE5         N/A
PORTLAND       PTCLDY    45  30  57 S9        30.27R
SMYRNA         CLEAR     43  32  65 S6        30.31R
SPARTA         CLEAR     43  28  56 CALM      30.31R
SPRINGFIELD*     N/A     46  37  71 MISG        N/A
WHITE BLUFF*     N/A     50  32  50 E10         N/A
$$
TNZ056-058-060-061-075>077-079-093>097-171100
...SOUTHERN MIDDLE TENNESSEE...

CITY           SKY/WX    TMP DP  RH WIND       PRES   REMARKS
BELLEVUE*        N/A     46  36  66 CALM        N/A
CULLEOKA*        N/A     48  30  49 SE1         N/A
EAGLEVILLE*      N/A    N/A N/A N/A S8G22       N/A
FAYETTEVILLE   CLEAR     41  29  62 SE9       30.30R
HOHENWALD*       N/A     46  32  57 SE3         N/A
LEWISBURG      PTCLDY    47  31  54 SE7       30.29R
MANCHESTER*      N/A     39  32  75 CALM        N/A
MCMINNVILLE      N/A     47  28  47 S6        30.31R
MOUNT PLEASANT   N/A     48  36  61 CALM        N/A
MURFREESBORO   CLEAR     48  31  52 S8        30.30R
SHELBYVILLE    CLEAR     46  30  53 SE8       30.31R
SPRING HILL*     N/A     41  30  65 CALM        N/A
TULLAHOMA      CLEAR     46  27  46 SE8       30.31S
WINCHESTER     CLEAR     46  28  49 SE12      30.32R
$$


...KEY TO REMARKS...
VSB - VISIBILITY IN MILES
WCI - WIND CHILL INDEX
HX  - HEAT INDEX




USA.gov is the U.S. government's official web portal to all federal, state and local government web resources and services.